Year,Month,Day,Hour,Minute,Value (Times are PST for temperature in C)
2011,08,07,00,02,15.80
2011,08,07,00,04,15.70
2011,08,07,00,05,15.70
2011,08,07,00,06,15.80
2011,08,07,00,07,15.80
2011,08,07,00,09,15.80
2011,08,07,00,10,15.80
2011,08,07,00,11,15.80
2011,08,07,00,12,15.80
2011,08,07,00,14,15.80
2011,08,07,00,15,15.80
2011,08,07,00,16,15.80
2011,08,07,00,17,15.80
2011,08,07,00,19,15.80
2011,08,07,00,20,15.80
2011,08,07,00,21,15.80
2011,08,07,00,22,15.70
2011,08,07,00,24,15.70
2011,08,07,00,25,15.70
2011,08,07,00,26,15.70
2011,08,07,00,27,15.70
2011,08,07,00,29,15.70
2011,08,07,00,30,15.60
2011,08,07,00,31,15.70
2011,08,07,00,33,15.70
2011,08,07,00,34,15.60
2011,08,07,00,35,15.60
2011,08,07,00,37,15.60
2011,08,07,00,38,15.60
2011,08,07,00,39,15.60
2011,08,07,00,40,15.60
2011,08,07,00,42,15.60
2011,08,07,00,43,15.60
2011,08,07,00,44,15.60
2011,08,07,00,45,15.60
2011,08,07,00,47,15.60
2011,08,07,00,48,15.60
2011,08,07,00,49,15.60
2011,08,07,00,50,15.60
2011,08,07,00,51,15.60
2011,08,07,00,53,15.60
2011,08,07,00,54,15.60
2011,08,07,00,55,15.60
2011,08,07,00,56,15.60
2011,08,07,00,58,15.50
2011,08,07,00,59,15.50
2011,08,07,01,00,15.40
2011,08,07,01,01,15.40
2011,08,07,01,02,15.40
2011,08,07,01,04,15.40
2011,08,07,01,05,15.40
2011,08,07,01,06,15.40
2011,08,07,01,09,15.30
2011,08,07,01,10,15.40
2011,08,07,01,11,15.40
2011,08,07,01,12,15.40
2011,08,07,01,14,15.40
2011,08,07,01,15,15.40
2011,08,07,01,16,15.40
2011,08,07,01,17,15.30
2011,08,07,01,19,15.30
2011,08,07,01,20,15.30
2011,08,07,01,21,15.20
2011,08,07,01,23,15.20
2011,08,07,01,24,15.20
2011,08,07,01,25,15.20
2011,08,07,01,26,15.10
2011,08,07,01,28,15.10
2011,08,07,01,29,14.90
2011,08,07,01,30,14.90
2011,08,07,01,31,14.80
2011,08,07,01,33,14.80
2011,08,07,01,34,14.80
2011,08,07,01,35,14.70
2011,08,07,01,36,14.70
2011,08,07,01,37,14.70
2011,08,07,01,38,14.60
2011,08,07,01,39,14.60
2011,08,07,01,40,14.60
2011,08,07,01,41,14.60
2011,08,07,01,42,14.60
2011,08,07,01,44,14.60
2011,08,07,01,45,14.50
2011,08,07,01,46,14.50
2011,08,07,01,47,14.50
2011,08,07,01,48,14.50
2011,08,07,01,50,14.40
2011,08,07,01,51,14.40
2011,08,07,01,52,14.40
2011,08,07,01,53,14.50
2011,08,07,01,55,14.50
2011,08,07,01,56,14.40
2011,08,07,01,57,14.40
2011,08,07,01,58,14.40
2011,08,07,01,59,14.40
2011,08,07,02,00,14.40
2011,08,07,02,01,14.40
2011,08,07,02,02,14.40
2011,08,07,02,03,14.40
2011,08,07,02,05,14.30
2011,08,07,02,06,14.30
2011,08,07,02,07,14.30
2011,08,07,02,08,14.30
2011,08,07,02,09,14.30
2011,08,07,02,10,14.30
2011,08,07,02,11,14.30
2011,08,07,02,12,14.30
2011,08,07,02,13,14.30
2011,08,07,02,15,14.30
2011,08,07,02,16,14.30
2011,08,07,02,17,14.30
2011,08,07,02,18,14.30
2011,08,07,02,20,14.30
2011,08,07,02,21,14.30
2011,08,07,02,22,14.40
2011,08,07,02,23,14.40
2011,08,07,02,24,14.40
2011,08,07,02,25,14.40
2011,08,07,02,26,14.40
2011,08,07,02,27,14.40
2011,08,07,02,28,14.40
2011,08,07,02,29,14.40
2011,08,07,02,31,14.40
2011,08,07,02,32,14.50
2011,08,07,02,33,14.50
2011,08,07,02,34,14.50
2011,08,07,02,36,14.50
2011,08,07,02,37,14.50
2011,08,07,02,38,14.50
2011,08,07,02,39,14.50
2011,08,07,02,41,14.50
2011,08,07,02,42,14.50
2011,08,07,02,43,14.50
2011,08,07,02,44,14.50
2011,08,07,02,46,14.50
2011,08,07,02,47,14.50
2011,08,07,02,48,14.50
2011,08,07,02,50,14.50
2011,08,07,02,51,14.40
2011,08,07,02,52,14.40
2011,08,07,02,53,14.40
2011,08,07,02,55,14.40
2011,08,07,02,56,14.40
2011,08,07,02,57,14.40
2011,08,07,02,58,14.40
2011,08,07,03,00,14.40
2011,08,07,03,01,14.50
2011,08,07,03,02,14.50
2011,08,07,03,03,14.50
2011,08,07,03,05,14.50
2011,08,07,03,06,14.60
2011,08,07,03,07,14.60
2011,08,07,03,08,14.60
2011,08,07,03,10,14.60
2011,08,07,03,11,14.60
2011,08,07,03,12,14.60
2011,08,07,03,13,14.60
2011,08,07,03,15,14.60
2011,08,07,03,16,14.60
2011,08,07,03,17,14.60
2011,08,07,03,18,14.60
2011,08,07,03,20,14.60
2011,08,07,03,21,14.60
2011,08,07,03,22,14.60
2011,08,07,03,23,14.60
2011,08,07,03,25,14.60
2011,08,07,03,26,14.50
2011,08,07,03,27,14.50
2011,08,07,03,28,14.40
2011,08,07,03,30,14.40
2011,08,07,03,32,14.30
2011,08,07,03,33,14.30
2011,08,07,03,34,14.30
2011,08,07,03,35,14.20
2011,08,07,03,36,14.20
2011,08,07,03,37,14.10
2011,08,07,03,38,14.00
2011,08,07,03,39,13.90
2011,08,07,03,40,13.90
2011,08,07,03,41,13.80
2011,08,07,03,42,13.70
2011,08,07,03,43,13.70
2011,08,07,03,44,13.70
2011,08,07,03,45,13.60
2011,08,07,03,46,13.50
2011,08,07,03,47,13.40
2011,08,07,03,48,13.40
2011,08,07,03,49,13.40
2011,08,07,03,50,13.30
2011,08,07,03,51,13.30
2011,08,07,03,52,13.20
2011,08,07,03,53,13.20
2011,08,07,03,54,13.20
2011,08,07,03,55,13.20
2011,08,07,03,56,13.10
2011,08,07,03,57,13.10
2011,08,07,03,58,13.10
2011,08,07,03,59,13.10
2011,08,07,04,00,13.00
2011,08,07,04,01,13.00
2011,08,07,04,02,13.00
2011,08,07,04,03,12.90
2011,08,07,04,04,12.90
2011,08,07,04,05,12.90
2011,08,07,04,06,12.90
2011,08,07,04,07,12.90
2011,08,07,04,08,12.90
2011,08,07,04,09,12.90
2011,08,07,04,10,12.90
2011,08,07,04,11,12.90
2011,08,07,04,12,12.90
2011,08,07,04,13,12.80
2011,08,07,04,14,12.80
2011,08,07,04,15,12.80
2011,08,07,04,16,12.80
2011,08,07,04,17,12.80
2011,08,07,04,18,12.80
2011,08,07,04,19,12.80
2011,08,07,04,20,12.80
2011,08,07,04,21,12.80
2011,08,07,04,22,12.80
2011,08,07,04,23,12.80
2011,08,07,04,24,12.80
2011,08,07,04,25,12.80
2011,08,07,04,26,12.80
2011,08,07,04,27,12.80
2011,08,07,04,28,12.70
2011,08,07,04,29,12.70
2011,08,07,04,31,12.70
2011,08,07,04,32,12.70
2011,08,07,04,33,12.70
2011,08,07,04,34,12.70
2011,08,07,04,36,12.70
2011,08,07,04,37,12.70
2011,08,07,04,38,12.70
2011,08,07,04,40,12.70
2011,08,07,04,41,12.70
2011,08,07,04,42,12.60
2011,08,07,04,43,12.60
2011,08,07,04,45,12.70
2011,08,07,04,46,12.70
2011,08,07,04,47,12.70
2011,08,07,04,48,12.70
2011,08,07,04,50,12.60
2011,08,07,04,51,12.60
2011,08,07,04,52,12.70
2011,08,07,04,53,12.70
2011,08,07,04,54,12.70
2011,08,07,04,56,12.70
2011,08,07,04,57,12.70
2011,08,07,04,58,12.70
2011,08,07,04,59,12.70
2011,08,07,05,00,12.70
2011,08,07,05,02,12.70
2011,08,07,05,03,12.70
2011,08,07,05,04,12.70
2011,08,07,05,05,12.70
2011,08,07,05,07,12.60
2011,08,07,05,08,12.60
2011,08,07,05,09,12.60
2011,08,07,05,10,12.60
2011,08,07,05,12,12.60
2011,08,07,05,13,12.60
2011,08,07,05,14,12.60
2011,08,07,05,16,12.60
2011,08,07,05,17,12.60
2011,08,07,05,18,12.60
2011,08,07,05,19,12.60
2011,08,07,05,21,12.50
2011,08,07,05,22,12.50
2011,08,07,05,23,12.50
2011,08,07,05,25,12.50
2011,08,07,05,26,12.40
2011,08,07,05,27,12.40
2011,08,07,05,28,12.40
2011,08,07,05,30,12.40
2011,08,07,05,31,12.40
2011,08,07,05,32,12.30
2011,08,07,05,33,12.30
2011,08,07,05,35,12.30
2011,08,07,05,36,12.30
2011,08,07,05,37,12.30
2011,08,07,05,39,12.20
2011,08,07,05,40,12.20
2011,08,07,05,41,12.20
2011,08,07,05,42,12.20
2011,08,07,05,43,12.20
2011,08,07,05,44,12.20
2011,08,07,05,45,12.20
2011,08,07,05,46,12.20
2011,08,07,05,48,12.20
2011,08,07,05,49,12.10
2011,08,07,05,50,12.10
2011,08,07,05,51,12.10
2011,08,07,05,53,12.10
2011,08,07,05,54,12.10
2011,08,07,05,55,12.10
2011,08,07,05,56,12.10
2011,08,07,05,57,12.10
2011,08,07,05,59,12.10
2011,08,07,06,00,12.10
2011,08,07,06,01,12.10
2011,08,07,06,02,12.10
2011,08,07,06,03,12.10
2011,08,07,06,04,12.10
2011,08,07,06,05,12.10
2011,08,07,06,07,12.10
2011,08,07,06,08,12.10
2011,08,07,06,09,12.10
2011,08,07,06,10,12.10
2011,08,07,06,11,12.10
2011,08,07,06,13,12.10
2011,08,07,06,14,12.10
2011,08,07,06,15,12.10
2011,08,07,06,16,12.10
2011,08,07,06,17,12.10
2011,08,07,06,19,12.10
2011,08,07,06,20,12.10
2011,08,07,06,21,12.10
2011,08,07,06,23,12.10
2011,08,07,06,24,12.10
2011,08,07,06,25,12.10
2011,08,07,06,26,12.10
2011,08,07,06,28,12.10
2011,08,07,06,29,12.10
2011,08,07,06,30,12.10
2011,08,07,06,31,12.10
2011,08,07,06,32,12.10
2011,08,07,06,33,12.10
2011,08,07,06,34,12.10
2011,08,07,06,35,12.10
2011,08,07,06,36,12.00
2011,08,07,06,37,12.00
2011,08,07,06,38,12.00
2011,08,07,06,39,12.00
2011,08,07,06,40,12.00
2011,08,07,06,41,12.00
2011,08,07,06,42,12.00
2011,08,07,06,43,12.00
2011,08,07,06,44,12.00
2011,08,07,06,45,12.00
2011,08,07,06,46,12.00
2011,08,07,06,47,12.10
2011,08,07,06,48,12.10
2011,08,07,06,49,12.10
2011,08,07,06,50,12.10
2011,08,07,06,51,12.10
2011,08,07,06,52,12.10
2011,08,07,06,53,12.10
2011,08,07,06,54,12.10
2011,08,07,06,55,12.10
2011,08,07,06,56,12.10
2011,08,07,06,57,12.10
2011,08,07,06,58,12.20
2011,08,07,06,59,12.20
2011,08,07,07,00,12.20
2011,08,07,07,01,12.20
2011,08,07,07,02,12.20
2011,08,07,07,03,12.20
2011,08,07,07,04,12.20
2011,08,07,07,05,12.30
2011,08,07,07,06,12.30
2011,08,07,07,07,12.30
2011,08,07,07,08,12.40
2011,08,07,07,09,12.40
2011,08,07,07,10,12.40
2011,08,07,07,11,12.40
2011,08,07,07,12,12.40
2011,08,07,07,13,12.50
2011,08,07,07,15,12.50
2011,08,07,07,16,12.60
2011,08,07,07,17,12.60
2011,08,07,07,18,12.60
2011,08,07,07,19,12.70
2011,08,07,07,20,12.70
2011,08,07,07,21,12.70
2011,08,07,07,22,12.70
2011,08,07,07,23,12.80
2011,08,07,07,24,12.80
2011,08,07,07,25,12.80
2011,08,07,07,26,12.80
2011,08,07,07,27,12.90
2011,08,07,07,28,12.90
2011,08,07,07,29,12.90
2011,08,07,07,30,12.90
2011,08,07,07,31,13.00
2011,08,07,07,32,13.10
2011,08,07,07,33,13.10
2011,08,07,07,35,13.20
2011,08,07,07,36,13.20
2011,08,07,07,37,13.30
2011,08,07,07,38,13.30
2011,08,07,07,40,13.40
2011,08,07,07,41,13.40
2011,08,07,07,42,13.50
2011,08,07,07,43,13.60
2011,08,07,07,45,13.60
2011,08,07,07,46,13.70
2011,08,07,07,47,13.70
2011,08,07,07,48,13.80
2011,08,07,07,50,13.80
2011,08,07,07,51,13.80
2011,08,07,07,52,13.90
2011,08,07,07,53,13.90
2011,08,07,07,54,14.00
2011,08,07,07,56,14.10
2011,08,07,07,57,14.20
2011,08,07,07,58,14.20
2011,08,07,07,59,14.20
2011,08,07,08,01,14.20
2011,08,07,08,02,14.30
2011,08,07,08,03,14.30
2011,08,07,08,04,14.30
2011,08,07,08,06,14.30
2011,08,07,08,07,14.30
2011,08,07,08,08,14.30
2011,08,07,08,09,14.30
2011,08,07,08,10,14.40
2011,08,07,08,12,14.40
2011,08,07,08,13,14.40
2011,08,07,08,14,14.40
2011,08,07,08,15,14.40
2011,08,07,08,17,14.40
2011,08,07,08,18,14.60
2011,08,07,08,19,14.60
2011,08,07,08,20,14.60
2011,08,07,08,22,14.60
2011,08,07,08,23,14.60
2011,08,07,08,24,14.60
2011,08,07,08,25,14.70
2011,08,07,08,26,14.70
2011,08,07,08,27,14.70
2011,08,07,08,28,14.70
2011,08,07,08,29,14.70
2011,08,07,08,30,14.80
2011,08,07,08,31,14.80
2011,08,07,08,32,14.80
2011,08,07,08,33,14.80
2011,08,07,08,34,14.80
2011,08,07,08,36,14.80
2011,08,07,08,37,14.80
2011,08,07,08,38,14.80
2011,08,07,08,40,14.80
2011,08,07,08,41,14.80
2011,08,07,08,42,14.80
2011,08,07,08,43,14.80
2011,08,07,08,44,14.80
2011,08,07,08,45,14.80
2011,08,07,08,46,14.80
2011,08,07,08,47,14.80
2011,08,07,08,48,14.80
2011,08,07,08,49,14.80
2011,08,07,08,50,14.90
2011,08,07,08,51,14.90
2011,08,07,08,52,14.90
2011,08,07,08,54,14.90
2011,08,07,08,55,14.90
2011,08,07,08,56,14.90
2011,08,07,08,57,14.90
2011,08,07,08,59,14.90
2011,08,07,09,00,15.00
2011,08,07,09,01,15.10
2011,08,07,09,02,15.10
2011,08,07,09,04,15.20
2011,08,07,09,05,15.20
2011,08,07,09,06,15.30
2011,08,07,09,07,15.30
2011,08,07,09,09,15.40
2011,08,07,09,10,15.40
2011,08,07,09,11,15.40
2011,08,07,09,12,15.40
2011,08,07,09,14,15.50
2011,08,07,09,15,15.60
2011,08,07,09,16,15.60
2011,08,07,09,18,15.70
2011,08,07,09,19,15.80
2011,08,07,09,20,15.80
2011,08,07,09,21,15.80
2011,08,07,09,23,15.80
2011,08,07,09,24,15.90
2011,08,07,09,25,15.90
2011,08,07,09,26,15.90
2011,08,07,09,28,15.90
2011,08,07,09,29,15.90
2011,08,07,09,30,15.90
2011,08,07,09,31,15.90
2011,08,07,09,33,16.00
2011,08,07,09,34,16.10
2011,08,07,09,35,16.20
2011,08,07,09,36,16.20
2011,08,07,09,37,16.30
2011,08,07,09,39,16.30
2011,08,07,09,40,16.40
2011,08,07,09,41,16.50
2011,08,07,09,42,16.70
2011,08,07,09,43,16.70
2011,08,07,09,45,16.80
2011,08,07,09,46,17.00
2011,08,07,09,47,17.10
2011,08,07,09,48,17.20
2011,08,07,09,50,17.20
2011,08,07,09,51,17.30
2011,08,07,09,52,17.30
2011,08,07,09,53,17.40
2011,08,07,09,55,17.40
2011,08,07,09,56,17.60
2011,08,07,09,57,17.70
2011,08,07,09,58,17.80
2011,08,07,10,00,17.80
2011,08,07,10,01,17.90
2011,08,07,10,02,18.10
2011,08,07,10,03,18.20
2011,08,07,10,05,18.20
2011,08,07,10,06,18.30
2011,08,07,10,07,18.30
2011,08,07,10,09,18.30
2011,08,07,10,10,18.30
2011,08,07,10,11,18.40
2011,08,07,10,12,18.60
2011,08,07,10,13,18.60
2011,08,07,10,14,18.60
2011,08,07,10,16,18.60
2011,08,07,10,17,18.60
2011,08,07,10,18,18.70
2011,08,07,10,19,18.70
2011,08,07,10,21,18.70
2011,08,07,10,22,18.70
2011,08,07,10,23,18.70
2011,08,07,10,24,18.80
2011,08,07,10,26,18.80
2011,08,07,10,27,18.90
2011,08,07,10,28,18.90
2011,08,07,10,29,19.00
2011,08,07,10,31,19.10
2011,08,07,10,32,19.10
2011,08,07,10,33,19.10
2011,08,07,10,34,19.20
2011,08,07,10,35,19.20
2011,08,07,10,36,19.20
2011,08,07,10,37,19.20
2011,08,07,10,38,19.20
2011,08,07,10,39,19.10
2011,08,07,10,40,19.10
2011,08,07,10,41,19.00
2011,08,07,10,42,19.00
2011,08,07,10,43,19.00
2011,08,07,10,44,19.10
2011,08,07,10,45,19.10
2011,08,07,10,46,19.10
2011,08,07,10,47,19.20
2011,08,07,10,48,19.20
2011,08,07,10,49,19.10
2011,08,07,10,50,19.10
2011,08,07,10,51,19.10
2011,08,07,10,52,19.10
2011,08,07,10,53,19.10
2011,08,07,10,54,19.10
2011,08,07,10,55,19.10
2011,08,07,10,56,19.10
2011,08,07,10,57,19.20
2011,08,07,10,58,19.20
2011,08,07,10,59,19.20
2011,08,07,11,00,19.30
2011,08,07,11,01,19.30
2011,08,07,11,02,19.30
2011,08,07,11,03,19.40
2011,08,07,11,04,19.30
2011,08,07,11,05,19.30
2011,08,07,11,06,19.30
2011,08,07,11,07,19.30
2011,08,07,11,08,19.30
2011,08,07,11,09,19.30
2011,08,07,11,10,19.30
2011,08,07,11,11,19.30
2011,08,07,11,12,19.40
2011,08,07,11,13,19.40
2011,08,07,11,14,19.40
2011,08,07,11,15,19.40
2011,08,07,11,16,19.30
2011,08,07,11,17,19.30
2011,08,07,11,18,19.30
2011,08,07,11,19,19.30
2011,08,07,11,20,19.30
2011,08,07,11,21,19.30
2011,08,07,11,22,19.30
2011,08,07,11,23,19.40
2011,08,07,11,24,19.50
2011,08,07,11,25,19.60
2011,08,07,11,26,19.70
2011,08,07,11,27,19.80
2011,08,07,11,28,19.90
2011,08,07,11,29,20.00
2011,08,07,11,30,20.10
2011,08,07,11,32,20.00
2011,08,07,11,33,19.90
2011,08,07,11,34,19.90
2011,08,07,11,35,20.00
2011,08,07,11,37,20.10
2011,08,07,11,38,20.20
2011,08,07,11,39,20.20
2011,08,07,11,40,20.10
2011,08,07,11,42,20.20
2011,08,07,11,43,20.00
2011,08,07,11,44,19.90
2011,08,07,11,45,19.80
2011,08,07,11,47,19.80
2011,08,07,11,48,19.80
2011,08,07,11,49,19.80
2011,08,07,11,50,19.90
2011,08,07,11,52,19.90
2011,08,07,11,53,19.90
2011,08,07,11,54,19.90
2011,08,07,11,55,19.90
2011,08,07,11,57,19.90
2011,08,07,11,58,19.90
2011,08,07,11,59,20.10
2011,08,07,12,00,20.10
2011,08,07,12,01,20.20
2011,08,07,12,03,20.30
2011,08,07,12,04,20.30
2011,08,07,12,05,20.30
2011,08,07,12,06,20.40
2011,08,07,12,08,20.40
2011,08,07,12,09,20.50
2011,08,07,12,10,20.40
2011,08,07,12,12,20.40
2011,08,07,12,13,20.40
2011,08,07,12,14,20.40
2011,08,07,12,15,20.30
2011,08,07,12,16,20.30
2011,08,07,12,18,20.40
2011,08,07,12,19,20.40
2011,08,07,12,20,20.50
2011,08,07,12,21,20.50
2011,08,07,12,23,20.50
2011,08,07,12,24,20.40
2011,08,07,12,25,20.50
2011,08,07,12,26,20.60
2011,08,07,12,27,20.50
2011,08,07,12,28,20.40
2011,08,07,12,29,20.40
2011,08,07,12,30,20.30
2011,08,07,12,31,20.30
2011,08,07,12,32,20.40
2011,08,07,12,33,20.40
2011,08,07,12,34,20.40
2011,08,07,12,35,20.40
2011,08,07,12,36,20.50
2011,08,07,12,37,20.60
2011,08,07,12,38,20.60
2011,08,07,12,40,20.60
2011,08,07,12,41,20.60
2011,08,07,12,42,20.60
2011,08,07,12,43,20.60
2011,08,07,12,44,20.70
2011,08,07,12,45,20.80
2011,08,07,12,46,20.90
2011,08,07,12,47,20.90
2011,08,07,12,48,20.80
2011,08,07,12,49,20.80
2011,08,07,12,50,20.80
2011,08,07,12,51,20.80
2011,08,07,12,52,20.90
2011,08,07,12,53,20.90
2011,08,07,12,54,20.90
2011,08,07,12,55,20.90
2011,08,07,12,56,20.80
2011,08,07,12,57,20.90
2011,08,07,12,58,20.90
2011,08,07,12,59,20.90
2011,08,07,13,00,20.90
2011,08,07,13,01,20.90
2011,08,07,13,02,20.80
2011,08,07,13,03,20.70
2011,08,07,13,04,20.60
2011,08,07,13,05,20.60
2011,08,07,13,06,20.50
2011,08,07,13,07,20.50
2011,08,07,13,08,20.50
2011,08,07,13,09,20.60
2011,08,07,13,10,20.60
2011,08,07,13,11,20.60
2011,08,07,13,12,20.60
2011,08,07,13,13,20.70
2011,08,07,13,14,20.70
2011,08,07,13,15,20.70
2011,08,07,13,16,20.80
2011,08,07,13,17,20.80
2011,08,07,13,18,20.80
2011,08,07,13,19,20.80
2011,08,07,13,21,20.80
2011,08,07,13,22,20.90
2011,08,07,13,23,20.90
2011,08,07,13,24,20.90
2011,08,07,13,25,20.90
2011,08,07,13,26,20.90
2011,08,07,13,27,21.00
2011,08,07,13,28,21.10
2011,08,07,13,29,21.20
2011,08,07,13,31,21.30
2011,08,07,13,32,21.30
2011,08,07,13,33,21.30
2011,08,07,13,34,21.30
2011,08,07,13,35,21.30
2011,08,07,13,37,21.30
2011,08,07,13,38,21.20
2011,08,07,13,39,21.30
2011,08,07,13,41,21.30
2011,08,07,13,42,21.40
2011,08,07,13,43,21.40
2011,08,07,13,44,21.50
2011,08,07,13,45,21.60
2011,08,07,13,47,21.60
2011,08,07,13,48,21.60
2011,08,07,13,49,21.40
2011,08,07,13,50,21.30
2011,08,07,13,52,21.10
2011,08,07,13,53,21.10
2011,08,07,13,54,21.00
2011,08,07,13,55,21.00
2011,08,07,13,57,20.90
2011,08,07,13,58,20.90
2011,08,07,13,59,20.90
2011,08,07,14,00,20.90
2011,08,07,14,02,21.00
2011,08,07,14,03,20.90
2011,08,07,14,04,20.90
2011,08,07,14,05,20.90
2011,08,07,14,07,21.00
2011,08,07,14,08,21.10
2011,08,07,14,09,21.20
2011,08,07,14,10,21.20
2011,08,07,14,12,21.20
2011,08,07,14,13,21.30
2011,08,07,14,14,21.30
2011,08,07,14,15,21.30
2011,08,07,14,17,21.30
2011,08,07,14,18,21.30
2011,08,07,14,19,21.30
2011,08,07,14,20,21.40
2011,08,07,14,22,21.30
2011,08,07,14,23,21.30
2011,08,07,14,24,21.30
2011,08,07,14,25,21.40
2011,08,07,14,27,21.40
2011,08,07,14,28,21.40
2011,08,07,14,29,21.30
2011,08,07,14,31,21.20
2011,08,07,14,32,21.20
2011,08,07,14,33,21.20
2011,08,07,14,35,21.10
2011,08,07,14,36,20.90
2011,08,07,14,37,20.90
2011,08,07,14,38,20.90
2011,08,07,14,40,20.80
2011,08,07,14,41,20.70
2011,08,07,14,42,20.70
2011,08,07,14,44,20.70
2011,08,07,14,45,20.80
2011,08,07,14,46,20.80
2011,08,07,14,47,20.90
2011,08,07,14,48,20.80
2011,08,07,14,50,20.80
2011,08,07,14,51,20.80
2011,08,07,14,52,20.80
2011,08,07,14,54,20.80
2011,08,07,14,55,20.70
2011,08,07,14,56,20.70
2011,08,07,14,57,20.70
2011,08,07,14,59,20.70
2011,08,07,15,00,20.80
2011,08,07,15,01,20.90
2011,08,07,15,02,21.00
2011,08,07,15,03,21.10
2011,08,07,15,05,21.10
2011,08,07,15,06,21.10
2011,08,07,15,07,21.10
2011,08,07,15,08,21.10
2011,08,07,15,09,21.10
2011,08,07,15,10,21.10
2011,08,07,15,12,20.90
2011,08,07,15,13,20.80
2011,08,07,15,14,20.80
2011,08,07,15,15,20.80
2011,08,07,15,16,20.80
2011,08,07,15,17,20.80
2011,08,07,15,18,20.80
2011,08,07,15,19,20.90
2011,08,07,15,20,20.90
2011,08,07,15,22,20.90
2011,08,07,15,23,21.10
2011,08,07,15,24,21.10
2011,08,07,15,25,21.10
2011,08,07,15,26,21.10
2011,08,07,15,28,21.00
2011,08,07,15,29,20.90
2011,08,07,15,30,20.80
2011,08,07,15,31,20.70
2011,08,07,15,33,20.60
2011,08,07,15,34,20.50
2011,08,07,15,35,20.50
2011,08,07,15,37,20.60
2011,08,07,15,38,20.60
2011,08,07,15,39,20.60
2011,08,07,15,40,20.60
2011,08,07,15,41,20.70
2011,08,07,15,42,20.80
2011,08,07,15,43,20.80
2011,08,07,15,44,20.90
2011,08,07,15,45,21.00
2011,08,07,15,46,20.90
2011,08,07,15,47,20.90
2011,08,07,15,49,20.80
2011,08,07,15,50,20.60
2011,08,07,15,51,20.70
2011,08,07,15,52,20.70
2011,08,07,15,54,20.80
2011,08,07,15,55,20.80
2011,08,07,15,56,20.70
2011,08,07,15,58,20.70
2011,08,07,15,59,20.60
2011,08,07,16,00,20.70
2011,08,07,16,01,20.70
2011,08,07,16,02,20.70
2011,08,07,16,03,20.70
2011,08,07,16,04,20.70
2011,08,07,16,05,20.70
2011,08,07,16,06,20.70
2011,08,07,16,07,20.80
2011,08,07,16,08,20.80
2011,08,07,16,09,20.80
2011,08,07,16,10,20.90
2011,08,07,16,11,21.00
2011,08,07,16,13,21.20
2011,08,07,16,14,21.10
2011,08,07,16,15,20.90
2011,08,07,16,16,20.80
2011,08,07,16,18,20.70
2011,08,07,16,19,20.80
2011,08,07,16,20,20.80
2011,08,07,16,21,20.70
2011,08,07,16,23,20.60
2011,08,07,16,24,20.60
2011,08,07,16,25,20.60
2011,08,07,16,26,20.70
2011,08,07,16,28,20.80
2011,08,07,16,29,20.90
2011,08,07,16,30,20.90
2011,08,07,16,31,20.80
2011,08,07,16,33,20.80
2011,08,07,16,34,20.60
2011,08,07,16,35,20.50
2011,08,07,16,36,20.40
2011,08,07,16,38,20.50
2011,08,07,16,39,20.40
2011,08,07,16,40,20.40
2011,08,07,16,41,20.30
2011,08,07,16,43,20.40
2011,08,07,16,44,20.40
2011,08,07,16,45,20.40
2011,08,07,16,46,20.40
2011,08,07,16,48,20.40
2011,08,07,16,49,20.40
2011,08,07,16,50,20.40
2011,08,07,16,51,20.40
2011,08,07,16,53,20.30
2011,08,07,16,54,20.30
2011,08,07,16,55,20.20
2011,08,07,16,56,20.20
2011,08,07,16,57,20.10
2011,08,07,16,58,20.10
2011,08,07,16,59,20.10
2011,08,07,17,00,20.10
2011,08,07,17,01,20.10
2011,08,07,17,02,20.00
2011,08,07,17,04,20.00
2011,08,07,17,05,20.00
2011,08,07,17,06,20.10
2011,08,07,17,07,20.20
2011,08,07,17,08,20.20
2011,08,07,17,09,20.30
2011,08,07,17,10,20.40
2011,08,07,17,11,20.40
2011,08,07,17,13,20.50
2011,08,07,17,14,20.40
2011,08,07,17,15,20.30
2011,08,07,17,16,20.30
2011,08,07,17,17,20.20
2011,08,07,17,18,20.20
2011,08,07,17,19,20.20
2011,08,07,17,20,20.20
2011,08,07,17,21,20.20
2011,08,07,17,22,20.20
2011,08,07,17,24,20.30
2011,08,07,17,25,20.30
2011,08,07,17,26,20.30
2011,08,07,17,27,20.30
2011,08,07,17,29,20.40
2011,08,07,17,30,20.30
2011,08,07,17,31,20.30
2011,08,07,17,32,20.30
2011,08,07,17,33,20.30
2011,08,07,17,35,20.30
2011,08,07,17,36,20.40
2011,08,07,17,37,20.50
2011,08,07,17,38,20.60
2011,08,07,17,40,20.60
2011,08,07,17,41,20.60
2011,08,07,17,42,20.60
2011,08,07,17,43,20.60
2011,08,07,17,44,20.70
2011,08,07,17,46,20.70
2011,08,07,17,47,20.70
2011,08,07,17,48,20.70
2011,08,07,17,49,20.80
2011,08,07,17,50,20.80
2011,08,07,17,51,20.70
2011,08,07,17,52,20.70
2011,08,07,17,53,20.70
2011,08,07,17,54,20.70
2011,08,07,17,55,20.70
2011,08,07,17,57,20.70
2011,08,07,17,58,20.70
2011,08,07,17,59,20.70
2011,08,07,18,01,20.70
2011,08,07,18,02,20.70
2011,08,07,18,03,20.60
2011,08,07,18,04,20.60
2011,08,07,18,06,20.60
2011,08,07,18,07,20.60
2011,08,07,18,08,20.60
2011,08,07,18,09,20.60
2011,08,07,18,11,20.50
2011,08,07,18,12,20.50
2011,08,07,18,13,20.50
2011,08,07,18,14,20.50
2011,08,07,18,16,20.60
2011,08,07,18,17,20.60
2011,08,07,18,18,20.60
2011,08,07,18,19,20.60
2011,08,07,18,20,20.60
2011,08,07,18,21,20.60
2011,08,07,18,22,20.60
2011,08,07,18,23,20.60
2011,08,07,18,25,20.50
2011,08,07,18,26,20.50
2011,08,07,18,27,20.50
2011,08,07,18,29,20.60
2011,08,07,18,30,20.50
2011,08,07,18,31,20.40
2011,08,07,18,32,20.40
2011,08,07,18,33,20.40
2011,08,07,18,34,20.40
2011,08,07,18,35,20.40
2011,08,07,18,36,20.40
2011,08,07,18,37,20.30
2011,08,07,18,38,20.30
2011,08,07,18,39,20.30
2011,08,07,18,40,20.30
2011,08,07,18,41,20.30
2011,08,07,18,42,20.30
2011,08,07,18,43,20.30
2011,08,07,18,44,20.30
2011,08,07,18,45,20.40
2011,08,07,18,46,20.30
2011,08,07,18,47,20.30
2011,08,07,18,48,20.30
2011,08,07,18,49,20.30
2011,08,07,18,50,20.30
2011,08,07,18,51,20.30
2011,08,07,18,52,20.30
2011,08,07,18,53,20.30
2011,08,07,18,54,20.30
2011,08,07,18,55,20.30
2011,08,07,18,56,20.30
2011,08,07,18,58,20.40
2011,08,07,18,59,20.40
2011,08,07,19,00,20.40
2011,08,07,19,01,20.40
2011,08,07,19,02,20.30
2011,08,07,19,03,20.30
2011,08,07,19,04,20.30
2011,08,07,19,05,20.30
2011,08,07,19,06,20.30
2011,08,07,19,07,20.30
2011,08,07,19,08,20.30
2011,08,07,19,09,20.30
2011,08,07,19,10,20.20
2011,08,07,19,12,20.20
2011,08,07,19,13,20.20
2011,08,07,19,14,20.20
2011,08,07,19,16,20.20
2011,08,07,19,17,20.10
2011,08,07,19,18,20.10
2011,08,07,19,19,20.10
2011,08,07,19,20,20.10
2011,08,07,19,21,20.10
2011,08,07,19,22,20.10
2011,08,07,19,23,20.00
2011,08,07,19,24,20.00
2011,08,07,19,25,20.00
2011,08,07,19,26,19.90
2011,08,07,19,27,19.90
2011,08,07,19,28,19.90
2011,08,07,19,29,19.80
2011,08,07,19,30,19.80
2011,08,07,19,31,19.80
2011,08,07,19,32,19.80
2011,08,07,19,34,19.80
2011,08,07,19,35,19.80
2011,08,07,19,36,19.80
2011,08,07,19,37,19.70
2011,08,07,19,39,19.70
2011,08,07,19,40,19.70
2011,08,07,19,41,19.60
2011,08,07,19,42,19.60
2011,08,07,19,43,19.60
2011,08,07,19,44,19.60
2011,08,07,19,45,19.50
2011,08,07,19,46,19.50
2011,08,07,19,48,19.50
2011,08,07,19,49,19.40
2011,08,07,19,50,19.40
2011,08,07,19,51,19.40
2011,08,07,19,53,19.30
2011,08,07,19,54,19.30
2011,08,07,19,55,19.30
2011,08,07,19,56,19.20
2011,08,07,19,58,19.20
2011,08,07,19,59,19.20
2011,08,07,20,00,19.20
2011,08,07,20,01,19.20
2011,08,07,20,03,19.10
2011,08,07,20,04,19.10
2011,08,07,20,05,19.00
2011,08,07,20,06,18.90
2011,08,07,20,08,18.90
2011,08,07,20,09,18.90
2011,08,07,20,10,18.80
2011,08,07,20,11,18.80